Regional Weather Roundup
Issued by NWS

Home | Current Version | Previous Version | Text Only | Print | Product List | Glossary Off
Versions: 1 2 3 4 5 6 7 8 9 10 11 12 13 14 15 16 17 18 19 20 21 22 23 24 25 26 27 28 29 30 31 32 33 34 35 36 37 38 39 40 41 42 43 44 45 46 47 48 49 50

000
ASUS43 KFSD 230010
RWRSD

WEATHER ROUNDUP FOR SOUTH DAKOTA
NATIONAL WEATHER SERVICE SIOUX FALLS SD
700 PM CDT MON SEP 22 2014

NOTE: "FAIR" INDICATES FEW OR NO CLOUDS BELOW 12,000 FEET WITH NO
SIGNIFICANT WEATHER AND/OR OBSTRUCTIONS TO VISIBILITY.


SDZ001>005-009-010-012>017-230100-
NORTHWEST AND NORTH CENTRAL SOUTH DAKOTA

CITY           SKY/WX    TMP DP  RH WIND       PRES   REMARKS
BUFFALO          N/A     72  50  45 SE10      29.84S
FAITH            N/A     74  53  48 S12       29.91S
MOBRIDGE       PTCLDY    78  51  38 S17       29.93F
$$

SDZ012>016-024>037-041>051-057-063-072>074-230100-
SOUTHWEST AND SOUTH CENTRAL SOUTH DAKOTA

CITY           SKY/WX    TMP DP  RH WIND       PRES   REMARKS
RAPID CTY ARPT CLOUDY    71  51  49 S16G26    29.91F
PIERRE         PTCLDY    73  48  41 S21G29    29.97S
CUSTER         LGT RAIN  58  50  75 SW7       30.09R
ELLSWORTH AFB  MOCLDY    71  52  51 S12       29.90S
PHILIP         MOCLDY    70  53  54 S17G24    29.94S
PINE RIDGE     CLOUDY    68  54  60 S16G30    29.99F
WINNER         FAIR      71  51  49 S21G30    30.05S
$$

SDZ004>011-016>023-039-040-230100-
NORTHEAST SOUTH DAKOTA

CITY           SKY/WX    TMP DP  RH WIND       PRES   REMARKS
ABERDEEN       PTCLDY    71  48  43 S10       30.04S
WATERTOWN      PTCLDY    67  47  48 S9        30.10S
SISSETON         N/A     65  50  58 S7        30.07S
$$

SDZ017-020-022-023-036>040-048>070-230100-
SOUTHEAST SOUTH DAKOTA

CITY           SKY/WX    TMP DP  RH WIND       PRES   REMARKS
SIOUX FALLS    MOCLDY    68  48  48 S10       30.13F
HURON          CLEAR     72  48  42 S13G22    30.05F
CHAMBERLAIN    MOCLDY    70  49  47 S13       30.05R
MITCHELL       PTCLDY    71  50  47 SE12      30.09S
YANKTON        MOCLDY    68  52  56 SE9       30.12F
$$

ABBREVIATIONS USED IN REMARKS
   TC - TEMPERATURE IN CELSIUS
  WCI - WIND CHILL INDEX
   HX - HEAT INDEX
  VSB - VISIBILITY



USA.gov is the U.S. government's official web portal to all federal, state and local government web resources and services.